Location: William D. McDowell Observatory
(40.7857°N, 74.1054°W)
Time: 10:40:50
(UTC-04:00)

Hubble Space Telescope - Visible Passes

Search period start: 20 July 2018 00:00
Search period end: 30 July 2018 00:00
Orbit: 537 x 541 km, 28.5° (Epoch: 19 July)

Date Brightness Start Highest point End Pass type
(mag) Time Alt. Az. Time Alt. Az. Time Alt. Az.
20 Jul 3.2 03:36:58 11° SE 03:36:58 11° SE 03:37:10 10° SE visible
21 Jul 2.8 05:03:24 10° SSW 05:04:53 12° SSW 05:06:23 10° S visible
22 Jul 2.9 04:53:41 10° SSW 04:54:23 10° SSW 04:55:07 10° S visible
